This is the latest recevied weather packets stored in our database for station/object KD4UFD. If no packets are shown the sender has not sent any weather packets the latest 10 day(s).
| Time | Temp. | Humidity | Pressure | Rain* | Wind** | Luminosity | Snow |
|---|---|---|---|---|---|---|---|
| 1777727790 | 12.22° C | 62% | 1015.7 hPa | 0 mm | - | 308 W/m² | - |
| 1777727487 | 11.67° C | 60% | 1015.7 hPa | 0 mm | - | 289 W/m² | - |
| 1777727185 | 12.22° C | 62% | 1015.4 hPa | 0 mm | - | 265 W/m² | - |
| 1777726882 | 12.22° C | 66% | 1015.8 hPa | 0 mm | - | 265 W/m² | - |
| 1777726578 | 11.67° C | 64% | 1015.6 hPa | 0 mm | - | 274 W/m² | - |
| 1777726276 | 11.67° C | 65% | 1015.6 hPa | 0 mm | - | 267 W/m² | - |
| 1777725972 | 11.67° C | 66% | 1015.5 hPa | 0 mm | - | 250 W/m² | - |
| 1777725669 | 11.67° C | 66% | 1015.3 hPa | 0 mm | - | 248 W/m² | - |
| 1777725368 | 11.11° C | 66% | 1015.6 hPa | 0 mm | - | 225 W/m² | - |
| 1777725064 | 12.22° C | 64% | 1015.4 hPa | 0 mm | - | 231 W/m² | - |
| 1777724761 | 11.67° C | 67% | 1015.3 hPa | 0 mm | - | 205 W/m² | - |
| 1777724458 | 10.56° C | 68% | 1015.4 hPa | 0 mm | - | 144 W/m² | - |
| 1777724155 | 10.56° C | 70% | 1015.7 hPa | 0 mm | - | 81 W/m² | - |
| 1777723853 | 10° C | 71% | 1015.5 hPa | 0 mm | - | 79 W/m² | - |
| 1777723549 | 10° C | 70% | 1015.2 hPa | 0 mm | - | 78 W/m² | - |
| 1777723246 | 10° C | 70% | 1015.4 hPa | 0 mm | - | 70 W/m² | - |
| 1777722944 | 10° C | 69% | 1015.4 hPa | 0 mm | - | 75 W/m² | - |
| 1777722639 | 10° C | 69% | 1015.3 hPa | 0 mm | - | 79 W/m² | - |
| 1777722336 | 10° C | 71% | 1015.3 hPa | 0 mm | - | 71 W/m² | - |
| 1777722033 | 9.44° C | 72% | 1014.9 hPa | 0 mm | - | 51 W/m² | - |
| 1777721731 | 9.44° C | 71% | 1014.8 hPa | 0 mm | - | 48 W/m² | - |
| 1777721429 | 9.44° C | 71% | 1014.9 hPa | 0 mm | - | 29 W/m² | - |
| 1777721127 | 9.44° C | 71% | 1014.6 hPa | 0 mm | - | 26 W/m² | - |
| 1777720824 | 9.44° C | 71% | 1014.7 hPa | 0 mm | - | 19 W/m² | - |
| 1777720521 | 9.44° C | 72% | 1014.8 hPa | 0 mm | - | 21 W/m² | - |
* Rain latest hour (hover to see other rain measurements)
** Current wind speed in m/s (hover to see current wind gust speed)